Location: L�Ave Maria
(50.7161°N, 1.5911°E)
Time: 00:24:14
(UTC+00:00)

SL-16 R/B - Pass Details

Date: 10 July 2020
Orbit: 839 x 850 km, 71.0° (Epoch: 03 August)

Event Time Altitude Azimuth Distance (km) Brightness Sun altitude
Exits shadow 21:49:08 15° 164° (SSE) 2,134 3.7 -11.8°
Maximum altitude 21:53:09 34° 106° (ESE) 1,368 2.9 -12.1°
Drops below altitude 10° 21:58:12 10° 44° (NE) 2,483 4.9 -12.5°
Sets 22:00:51 0° 35° (NE) 3,424 5.7 -12.7°
